Weather History for Manteo, NC

Change the Weather History Date:

Wednesday, August 7, 2013

  Actual Average Record
Temperature  
Mean Temperature 77 °F -  
Max Temperature 82 °F 82 °F 98 °F (1977)
Min Temperature 72 °F 73 °F 61 °F (1971)
Cooling Degree Days 12    
Growing Degree Days 27 (Base 50)    
Moisture  
Dew Point 68 °F    
Average Humidity 72    
Maximum Humidity 84    
Minimum Humidity 59    
Precipitation  
Precipitation 0.00 in - - ()
Sea Level Pressure  
Sea Level Pressure 30.10 in    
Wind  
Wind Speed 7 mph (South)    
Max Wind Speed 13 mph    
Max Gust Speed 18 mph    
Visibility 10 miles    
Events      
Averages and records for this station are not official NWS values.
T = Trace of Precipitation, MM = Missing Value Source: NWS Daily Summary

Daily Weather History Graph

Daily Weather History Graph

Search for Another Location

Airport:

Trip Planner

Search our weather history database for the weather conditions in past years. The results will help you decide how hot, cold, wet, or windy it might be!

Date:

Astronomy

Aug. 07, 2013 Rise Set
Actual Time 6:15 AM EDT 8:01 PM EDT
Civil Twilight 5:47 AM EDT 8:28 PM EDT
Nautical Twilight 5:13 AM EDT 9:02 PM EDT
Astronomical Twilight 4:38 AM EDT 9:37 PM EDT
Moon 6:58 AM EDT (8/7) 8:11 PM EDT (8/7)
Length of Visible Light 14h 41m
Length of Day
13h 46m
New Moon, 1% of the Moon is Illuminated
Aug 7
New Moon
Aug 14
First Quarter
Aug 20
Full
Aug 28
Last Quarter
Sep 5
New

Hourly Weather History & Observations

Time (EDT) Temp. Heat Index Dew Point Humidity Pressure Visibility Wind Dir Wind Speed Gust Speed Precip Events Conditions
12:15 AM 73.8 °F - 68.2 °F 83% 30.09 in 10.0 mi SSE 6.9 mph - N/A   Overcast
12:35 AM 73.9 °F - 68.2 °F 82% 30.08 in 10.0 mi SSE 8.1 mph - N/A   Overcast
12:55 AM 74.3 °F - 68.2 °F 81% 30.09 in 10.0 mi SSE 5.8 mph - N/A   Overcast
1:15 AM 73.9 °F - 68.4 °F 83% 30.09 in 10.0 mi SSE 4.6 mph - N/A   Overcast
1:35 AM 74.1 °F - 68.2 °F 82% 30.09 in 10.0 mi SSE 3.5 mph - N/A   Overcast
1:55 AM 73.9 °F - 68.0 °F 82% 30.09 in 10.0 mi SSE 4.6 mph - N/A   Overcast
2:15 AM 74.1 °F - 67.5 °F 80% 30.08 in 10.0 mi SSE 4.6 mph - N/A   Overcast
2:35 AM 74.1 °F - 67.1 °F 79% 30.08 in 10.0 mi SSE 5.8 mph - N/A   Overcast
2:55 AM 73.8 °F - 66.7 °F 79% 30.08 in 10.0 mi SSE 4.6 mph - N/A   Overcast
3:15 AM 73.6 °F - 66.4 °F 78% 30.08 in 10.0 mi SSE 5.8 mph - N/A   Scattered Clouds
3:35 AM 73.6 °F - 66.6 °F 79% 30.08 in 10.0 mi SSE 4.6 mph - N/A   Mostly Cloudy
3:55 AM 74.1 °F - 66.2 °F 76% 30.09 in 10.0 mi SSE 4.6 mph - N/A   Overcast
4:15 AM 74.3 °F - 66.2 °F 76% 30.09 in 10.0 mi SSE 4.6 mph - N/A   Overcast
4:35 AM 74.3 °F - 66.2 °F 76% 30.09 in 10.0 mi SSE 4.6 mph - N/A   Overcast
4:55 AM 74.3 °F - 66.4 °F 76% 30.09 in 10.0 mi SE 3.5 mph - N/A   Overcast
5:15 AM 73.4 °F - 67.3 °F 81% 30.09 in 10.0 mi SE 3.5 mph - N/A   Overcast
5:35 AM 72.9 °F - 67.5 °F 83% 30.09 in 10.0 mi SSE 4.6 mph - N/A   Overcast
5:55 AM 72.9 °F - 67.6 °F 84% 30.10 in 10.0 mi SSE 4.6 mph - N/A   Overcast
6:15 AM 73.0 °F - 67.1 °F 82% 30.10 in 10.0 mi SSE 4.6 mph - N/A   Overcast
6:35 AM 73.6 °F - 66.7 °F 79% 30.11 in 10.0 mi SSE 4.6 mph - N/A   Overcast
6:55 AM 73.8 °F - 67.1 °F 80% 30.11 in 10.0 mi SSE 4.6 mph - N/A   Overcast
7:15 AM 74.3 °F - 67.1 °F 78% 30.11 in 10.0 mi SSE 4.6 mph - N/A   Mostly Cloudy
7:35 AM 75.0 °F - 67.3 °F 77% 30.11 in 10.0 mi South 4.6 mph - N/A   Mostly Cloudy
7:55 AM 76.5 °F - 67.3 °F 73% 30.12 in 10.0 mi SSE 4.6 mph - N/A   Mostly Cloudy
8:15 AM 77.2 °F - 67.3 °F 71% 30.12 in 10.0 mi South 4.6 mph - N/A   Overcast
8:35 AM 77.9 °F - 67.1 °F 69% 30.12 in 10.0 mi South 5.8 mph - N/A   Mostly Cloudy
8:55 AM 78.1 °F - 66.0 °F 66% 30.12 in 10.0 mi SSE 6.9 mph - N/A   Scattered Clouds
9:15 AM 79.2 °F - 67.3 °F 67% 30.12 in 10.0 mi South 6.9 mph - N/A   Mostly Cloudy
9:35 AM 79.0 °F - 67.1 °F 67% 30.12 in 10.0 mi South 6.9 mph - N/A   Mostly Cloudy
9:55 AM 79.5 °F - 67.1 °F 66% 30.12 in 10.0 mi South 9.2 mph - N/A   Mostly Cloudy
10:15 AM 80.2 °F 82.6 °F 67.1 °F 64% 30.13 in 10.0 mi South 10.4 mph - N/A   Scattered Clouds
10:35 AM 80.6 °F 83.2 °F 67.8 °F 65% 30.12 in 10.0 mi SSW 10.4 mph - N/A   Clear
10:55 AM 81.0 °F 83.4 °F 67.1 °F 63% 30.13 in 10.0 mi South 9.2 mph - N/A   Clear
11:15 AM 81.5 °F 84.1 °F 67.5 °F 62% 30.13 in 10.0 mi South 9.2 mph - N/A   Clear
11:35 AM 81.1 °F 83.5 °F 67.1 °F 62% 30.12 in 10.0 mi South 10.4 mph - N/A   Clear
11:55 AM 81.7 °F 84.3 °F 67.6 °F 62% 30.13 in 10.0 mi SSW 9.2 mph - N/A   Clear
12:15 PM 81.9 °F 84.6 °F 67.6 °F 62% 30.12 in 10.0 mi SSW 11.5 mph - N/A   Clear
12:35 PM 81.9 °F 84.6 °F 67.5 °F 62% 30.12 in 10.0 mi South 11.5 mph - N/A   Scattered Clouds
12:55 PM 82.0 °F 84.7 °F 67.5 °F 61% 30.11 in 10.0 mi South 12.7 mph - N/A   Clear
1:15 PM 82.0 °F 84.7 °F 67.5 °F 61% 30.12 in 10.0 mi SSW 11.5 mph - N/A   Clear
1:35 PM 82.8 °F 85.3 °F 67.1 °F 59% 30.11 in 10.0 mi SSW 10.4 mph - N/A   Clear
1:55 PM 82.4 °F 85.2 °F 67.6 °F 61% 30.11 in 10.0 mi SSW 11.5 mph - N/A   Clear
2:15 PM 82.8 °F 85.8 °F 68.0 °F 61% 30.11 in 10.0 mi South 11.5 mph - N/A   Clear
2:35 PM 82.4 °F 85.4 °F 68.2 °F 62% 30.11 in 10.0 mi SSW 11.5 mph - N/A   Clear
2:55 PM 82.9 °F 86.3 °F 68.9 °F 62% 30.10 in 10.0 mi South 12.7 mph - N/A   Clear
3:15 PM 82.6 °F 85.7 °F 68.4 °F 62% 30.10 in 10.0 mi South 12.7 mph 18.4 mph N/A   Clear
3:35 PM 82.9 °F 86.0 °F 68.2 °F 61% 30.09 in 10.0 mi South 12.7 mph - N/A   Clear
3:55 PM 82.6 °F 85.7 °F 68.2 °F 62% 30.10 in 10.0 mi South 10.4 mph - N/A   Clear
4:15 PM 82.6 °F 85.7 °F 68.2 °F 62% 30.10 in 10.0 mi South 8.1 mph - N/A   Clear
4:35 PM 82.6 °F 85.3 °F 67.6 °F 60% 30.09 in 10.0 mi SSW 11.5 mph - N/A   Clear
4:55 PM 82.0 °F 84.9 °F 68.0 °F 62% 30.09 in 10.0 mi South 10.4 mph - N/A   Clear
5:15 PM 82.2 °F 84.9 °F 67.5 °F 61% 30.09 in 10.0 mi SSW 11.5 mph - N/A   Clear
5:35 PM 82.0 °F 84.7 °F 67.3 °F 61% 30.09 in 10.0 mi South 11.5 mph - N/A   Clear
5:55 PM 81.9 °F 85.0 °F 68.5 °F 64% 30.08 in 10.0 mi SSE 10.4 mph - N/A   Scattered Clouds
6:15 PM 81.0 °F 84.1 °F 69.1 °F 67% 30.08 in 10.0 mi South 11.5 mph - N/A   Scattered Clouds
6:35 PM 80.1 °F 82.9 °F 69.1 °F 69% 30.08 in 10.0 mi SSE 9.2 mph - N/A   Mostly Cloudy
6:55 PM 79.7 °F - 68.4 °F 68% 30.08 in 10.0 mi South 11.5 mph - N/A   Scattered Clouds
7:15 PM 78.8 °F - 68.4 °F 70% 30.08 in 10.0 mi South 5.8 mph - N/A   Clear
7:35 PM 77.9 °F - 68.7 °F 73% 30.08 in 10.0 mi SSE 6.9 mph - N/A   Clear
7:55 PM 77.2 °F - 68.5 °F 75% 30.08 in 10.0 mi South 6.9 mph - N/A   Clear
8:15 PM 77.0 °F - 68.7 °F 75% 30.08 in 10.0 mi SSE 6.9 mph - N/A   Clear
8:35 PM 76.5 °F - 69.4 °F 79% 30.08 in 10.0 mi SSE 5.8 mph - N/A   Clear
8:55 PM 76.3 °F - 69.1 °F 78% 30.09 in 10.0 mi SSE 4.6 mph - N/A   Clear
9:15 PM 76.1 °F - 68.9 °F 78% 30.09 in 10.0 mi SSE 6.9 mph - N/A   Clear
9:35 PM 76.1 °F - 69.3 °F 79% 30.08 in 10.0 mi SSE 6.9 mph - N/A   Clear
9:55 PM 76.1 °F - 68.7 °F 78% 30.09 in 10.0 mi SSE 6.9 mph - N/A   Clear
10:15 PM 76.1 °F - 69.1 °F 79% 30.09 in 10.0 mi SSE 5.8 mph - N/A   Clear
10:35 PM 75.9 °F - 69.3 °F 80% 30.09 in 10.0 mi SSE 6.9 mph - N/A   Clear
10:55 PM 76.1 °F - 69.3 °F 79% 30.10 in 10.0 mi SSE 5.8 mph - N/A   Clear
11:15 PM 76.3 °F - 69.3 °F 79% 30.10 in 10.0 mi SSE 5.8 mph - N/A   Clear
11:35 PM 76.3 °F - 68.9 °F 78% 30.10 in 10.0 mi SSE 6.9 mph - N/A   Clear
11:55 PM 76.3 °F - 68.9 °F 78% 30.10 in 10.0 mi SSE 5.8 mph - N/A   Clear